Weather History for CWLP - November, 2013

Change the Weather History Date:

Saturday, November 23, 2013

  Actual Average Record
Temperature  
Mean Temperature 44 °F -  
Max Temperature 48 °F - - ()
Min Temperature 41 °F - - ()
Degree Days  
Heating Degree Days 20    
Moisture  
Dew Point 37 °F    
Average Humidity 67    
Maximum Humidity 75    
Minimum Humidity 56    
Precipitation  
Precipitation 0.00 in - - ()
Sea Level Pressure  
Sea Level Pressure 30.25 in    
Wind  
Wind Speed 22 mph ()    
Max Wind Speed 33 mph    
Max Gust Speed 37 mph    
T = Trace of Precipitation, MM = Missing Value Source: Averaged Metar Reports

Daily Weather History Graph

Daily Weather History Graph

Search for Another Location

Airport or City:

Trip Planner

Search our weather history database for the weather conditions in past years. The results will help you decide how hot, cold, wet, or windy it might be!

Date:

Astronomy

Nov. 23, 2013 Rise Set
Actual Time 8:00 AM PST 4:33 PM PST
Civil Twilight 7:22 AM PST 5:10 PM PST
Nautical Twilight 6:41 AM PST 5:51 PM PST
Astronomical Twilight 6:02 AM PST 6:31 PM PST
Moon 10:24 PM PST (11/23) 12:06 PM PST (11/23)
Length of Visible Light 9h 48m
Length of Day
8h 33m
Waning Gibbous, 68% of the Moon is Illuminated
Nov 23
Waning Gibbous
Nov 25
Last Quarter
Dec 2
New
Dec 9
First Quarter
Dec 17
Full

Hourly Weather History & Observations

Time (PST) Temp. Windchill Dew Point Humidity Pressure Visibility Wind Dir Wind Speed Gust Speed Precip Events Conditions
12:00 AM 45.3 °F 36.9 °F 36.0 °F 70% 30.36 in - SE 23.0 mph - N/A   Unknown
1:00 AM 45.7 °F 36.6 °F 36.0 °F 69% 30.33 in - SE 27.6 mph - N/A   Unknown
2:00 AM 45.7 °F 36.7 °F 35.8 °F 68% 30.32 in - SE 26.5 mph - N/A   Unknown
3:00 AM 46.0 °F 36.7 °F 36.9 °F 70% 30.31 in - SSE 29.9 mph 35.7 mph N/A   Unknown
4:00 AM 46 °F - 37 °F 62% 30.31 in - SSE 28.8 mph - -  
4:00 AM 46.2 °F 37.1 °F 37.0 °F 70% 30.31 in - SSE 28.8 mph - N/A   Unknown
5:00 AM 46.6 °F - 36.3 °F 67% 30.32 in - SSE 27.6 mph - N/A   Unknown
6:00 AM 46.9 °F - 36.7 °F 68% 30.30 in - SSE 28.8 mph - N/A   Unknown
7:00 AM 47.1 °F - 35.2 °F 63% 30.26 in - SE 28.8 mph 34.5 mph N/A   Unknown
8:00 AM 46.9 °F - 36.5 °F 67% 30.24 in - SE 32.2 mph - N/A   Unknown
9:00 AM 46.9 °F - 36.1 °F 66% 30.24 in - SE 33.4 mph - N/A   Unknown
10:00 AM 47 °F - 36 °F 56% 30.22 in - SE 29.9 mph - -  
10:00 AM 47.3 °F - 36.3 °F 66% 30.22 in - SE 29.9 mph 36.8 mph N/A   Unknown
11:00 AM 47.7 °F - 36.1 °F 64% 30.25 in - SE 26.5 mph 32.2 mph N/A   Unknown
12:00 PM 47.8 °F - 36.0 °F 63% 30.22 in - ESE 26.5 mph - N/A   Unknown
1:00 PM 48.0 °F - 36.3 °F 64% 30.23 in - SE 23.0 mph - N/A   Unknown
2:00 PM 47.8 °F - 37.2 °F 67% 30.22 in - SE 18.4 mph - N/A   Unknown
3:00 PM 47.8 °F - 37.9 °F 69% 30.20 in - ESE 21.9 mph - N/A   Unknown
4:00 PM 48 °F - 38 °F 57% 30.22 in - SE 16.1 mph - -  
4:00 PM 48.0 °F - 37.6 °F 67% 30.22 in - SE 16.1 mph - N/A   Unknown
5:00 PM 47.8 °F - 36.9 °F 66% 30.22 in - SE 16.1 mph - N/A   Unknown
6:00 PM 47.5 °F - 37.4 °F 68% 30.22 in - SE 15.0 mph - N/A   Unknown
7:00 PM 47.1 °F - 39.6 °F 75% 30.20 in - SE 15.0 mph - N/A   Unknown
8:00 PM 46.9 °F - 39.2 °F 74% 30.21 in - SE 12.7 mph - N/A   Unknown
9:00 PM 47.3 °F - 37.4 °F 68% 30.19 in - SSE 18.4 mph - N/A   Unknown
10:00 PM 47 °F - 39 °F 67% 30.20 in - ESE 11.5 mph - -  
10:00 PM 47.3 °F - 39.4 °F 74% 30.20 in - ESE 11.5 mph - N/A   Unknown
11:00 PM 46.9 °F - 38.8 °F 73% 30.19 in - SE 12.7 mph - N/A   Unknown